Theta_e
293 293 293 293 293 294 294 294 294 294 295 295 295 295 295 295 295 295 295 294 294 294 293 293 293 293 293 293 293 292 291 291 290 289 289 288 288 287 287 287 286 286 286 286 286 286 286 286 286 286 286 287 286 286 286 286 286 285 286 286 285 285 285 284 285 285 281 280 281 281 281 281 281 280 280 280 280 280 280 280 280 280 280 281 281
292 292 292 292 292 293 293 293 293 294 294 294 294 294 295 295 295 295 294 294 294 293 293 293 293 293 293 292 292 292 291 291 290 289 289 288 287 287 286 286 286 286 285 285 285 286 286 285 286 286 286 286 286 286 286 286 286 285 285 285 285 285 285 284 284 284 282 280 280 281 281 281 280 280 280 280 280 280 280 280 280 280 280 281 282
291 291 292 292 292 292 292 292 292 293 293 293 294 294 294 294 294 294 294 294 294 293 293 292 292 292 292 292 292 291 291 290 290 290 289 288 287 287 286 286 286 285 285 285 285 285 285 285 285 285 285 285 285 285 285 285 285 285 285 285 285 284 284 284 284 283 282 280 280 280 280 281 281 280 280 281 281 281 281 281 280 281 281 282 283
291 291 291 291 291 291 291 291 291 292 292 292 293 293 293 294 294 294 294 293 293 292 292 292 292 292 291 291 291 290 290 290 289 289 289 288 288 287 286 286 285 285 285 285 285 285 285 284 285 285 284 284 284 284 284 284 284 284 284 284 284 284 284 283 283 283 282 280 279 280 280 281 281 281 281 281 281 281 281 281 281 281 281 281 282
290 290 290 290 290 290 291 291 291 291 291 291 292 292 292 293 293 293 293 293 293 292 292 291 291 291 291 291 291 290 290 290 289 289 288 288 288 287 287 286 285 285 285 285 285 285 285 285 285 284 284 283 283 284 283 284 283 283 283 283 283 283 282 282 282 282 281 280 279 279 280 280 280 281 281 281 282 282 282 282 282 282 282 282 282
289 289 289 289 289 289 289 290 290 290 290 290 290 291 291 292 292 292 292 292 292 292 291 291 290 290 291 291 290 290 290 290 289 289 288 288 287 287 286 286 285 285 285 285 284 284 285 285 285 284 284 284 284 283 283 283 283 282 282 282 282 282 281 281 281 280 280 280 278 277 278 278 279 280 280 280 280 281 281 281 282 282 282 282 282
288 289 289 289 288 288 288 289 289 290 290 290 290 290 290 291 291 291 292 292 292 292 291 291 290 290 290 290 290 290 290 289 289 289 288 288 287 287 286 286 285 285 285 284 284 284 284 284 284 284 284 284 284 284 283 282 282 282 282 282 281 280 280 280 280 279 279 278 278 277 276 277 277 278 279 279 279 278 278 279 280 280 280 280 280
288 288 289 288 288 288 288 288 288 288 289 290 290 290 289 290 290 290 291 291 291 291 291 291 291 290 290 290 290 290 289 289 289 288 288 287 287 287 286 286 285 285 284 284 284 284 283 284 284 284 285 285 285 285 284 283 282 281 281 281 280 280 279 279 278 278 278 277 277 276 276 276 277 277 277 277 277 278 277 277 278 279 278 278 278
288 288 288 288 288 287 287 287 287 287 288 288 289 290 290 290 289 290 290 290 290 291 291 291 290 290 290 289 289 289 289 289 289 288 288 287 287 286 286 286 285 285 284 284 283 283 283 283 283 284 284 285 285 284 284 285 284 283 282 280 280 279 279 278 277 276 276 276 276 276 276 277 277 277 277 277 278 278 278 278 278 278 278 277 277
288 288 288 288 287 287 287 287 286 286 287 287 288 289 290 290 290 289 289 290 290 290 290 290 290 290 289 289 289 289 288 288 288 288 288 287 287 286 286 285 285 285 284 283 283 283 282 282 282 283 283 283 283 283 283 284 284 284 284 283 281 280 278 277 276 276 276 275 275 276 277 277 277 277 278 278 278 278 278 278 278 277 277 277 277
287 287 288 288 287 287 286 286 286 286 286 286 287 287 288 289 290 289 289 289 289 289 289 290 290 289 289 289 289 288 288 288 288 288 288 288 287 286 286 285 285 284 284 283 283 282 282 282 282 281 282 282 282 282 282 282 282 283 283 284 283 282 280 278 276 275 275 275 275 276 277 278 278 278 278 278 278 278 278 277 277 277 277 278 278
287 287 287 287 287 286 286 286 286 286 285 285 286 286 287 288 288 289 289 289 288 288 289 289 289 289 289 289 288 288 288 288 288 288 287 287 287 287 286 285 285 284 284 283 283 282 282 281 281 281 280 281 281 281 281 281 281 281 281 282 282 282 282 281 280 278 276 276 276 276 277 278 278 278 278 278 278 278 277 277 277 277 278 278 278
286 287 287 287 286 286 286 286 285 285 285 285 285 285 286 286 287 288 288 288 288 288 288 288 288 288 288 288 288 288 288 288 287 287 287 287 287 286 286 285 285 284 284 283 283 282 281 281 280 280 280 280 280 280 280 280 280 280 280 280 280 280 280 281 281 281 280 278 277 276 277 278 278 278 278 278 278 277 277 277 277 277 278 278 278
286 286 286 286 286 285 285 285 285 285 285 285 285 285 285 285 286 286 287 288 287 287 287 288 288 288 288 288 288 287 287 288 287 287 287 287 286 286 286 285 285 284 284 283 283 282 281 281 280 280 279 279 279 279 279 279 279 279 279 278 278 278 279 279 279 279 280 279 278 277 277 278 278 278 278 278 277 277 277 277 278 278 278 278 277
285 285 286 286 285 285 285 285 285 285 285 285 285 285 285 285 285 285 286 287 287 287 287 287 287 287 287 287 287 287 287 287 287 287 286 286 286 286 286 285 284 284 284 283 282 282 281 281 280 279 279 279 279 279 279 279 279 279 278 278 278 278 278 278 278 278 278 278 278 278 277 278 278 277 277 277 277 277 277 277 278 277 277 276 276
284 284 285 285 284 284 284 284 284 284 285 285 285 285 285 284 284 285 285 286 286 286 287 287 287 287 287 287 287 287 287 287 286 286 286 286 286 287 286 285 284 284 283 283 282 281 281 280 280 279 279 279 279 279 279 279 279 279 278 278 278 277 277 277 278 277 277 277 278 278 278 278 278 277 277 277 277 277 278 277 277 277 276 274 274
283 284 284 284 284 283 283 283 284 284 284 284 284 284 284 284 284 284 284 285 285 286 286 286 286 286 286 286 286 286 286 286 286 286 286 286 287 287 287 286 285 284 283 282 282 281 281 280 280 279 279 278 278 278 279 279 279 279 278 278 277 277 277 277 278 278 278 278 279 279 279 278 277 277 277 278 278 278 277 277 276 275 274 273 272
282 283 283 283 283 282 281 282 282 283 284 284 284 284 284 284 284 284 284 284 284 285 285 285 285 285 285 285 286 286 286 286 286 286 285 286 286 287 287 286 285 284 283 282 281 281 280 280 279 279 279 278 278 279 279 279 279 279 278 278 278 277 277 278 279 279 279 279 279 279 279 278 278 278 278 279 278 277 277 276 275 274 272 271 271
282 282 282 282 282 281 280 280 280 281 283 283 283 283 283 283 283 283 283 283 284 284 285 285 285 285 285 285 285 285 285 285 285 285 285 285 286 287 286 286 285 283 282 281 280 280 279 279 278 278 278 278 278 279 280 279 278 279 278 278 278 278 278 278 278 279 279 279 278 278 278 278 278 278 278 278 277 277 276 275 274 272 271 270 270
281 281 281 281 280 279 278 278 279 280 281 281 281 281 282 282 283 283 283 283 283 283 284 284 284 284 284 284 284 284 284 284 284 284 284 285 286 286 286 286 284 283 282 280 279 279 278 278 278 278 278 277 278 280 281 280 278 278 279 278 278 278 278 278 278 278 278 278 278 278 278 278 278 278 277 277 276 275 274 273 272 271 271 270 269
280 280 280 279 278 278 277 277 277 278 279 279 279 280 281 281 282 282 282 282 282 282 283 283 283 284 284 283 283 283 283 283 283 283 283 284 286 286 286 285 284 283 281 280 279 278 277 277 277 277 278 278 278 280 281 281 279 278 278 279 278 278 278 277 277 277 277 277 277 277 277 277 277 277 276 275 274 274 273 272 271 270 270 270 269
279 279 278 277 277 276 275 275 276 276 276 276 277 278 279 279 280 281 281 282 282 282 282 282 282 283 283 283 282 282 282 282 282 282 282 283 285 286 286 285 284 283 281 280 279 278 277 277 276 277 278 279 279 280 282 282 280 278 278 278 278 278 278 277 276 276 276 276 276 276 276 276 276 275 275 274 273 272 271 271 270 270 270 269 269
277 277 276 275 275 274 274 274 274 274 274 274 275 276 276 277 278 280 281 281 281 281 281 281 281 281 282 282 282 282 281 281 281 281 282 282 283 285 286 286 284 283 281 280 279 278 277 277 277 277 279 279 279 280 282 282 281 279 278 277 278 278 277 276 276 276 275 275 275 274 274 275 274 274 273 273 272 271 271 270 270 270 269 269 268
275 275 274 273 273 273 272 272 272 272 272 273 273 274 274 275 277 279 280 280 281 281 281 281 281 280 280 281 281 281 281 280 280 281 281 281 282 284 285 286 285 283 282 280 280 279 278 277 277 277 279 280 280 281 282 283 281 279 278 278 278 278 276 275 276 276 275 274 274 273 273 274 273 273 273 272 271 270 270 270 270 269 268 268 268
273 273 272 272 271 271 271 271 271 271 271 271 272 273 274 275 276 277 279 280 280 280 280 281 280 280 280 280 280 281 280 280 280 279 280 280 281 282 284 285 285 284 282 281 280 279 278 277 277 278 279 280 280 281 282 283 282 279 278 279 278 277 276 275 275 275 274 273 273 273 273 273 273 273 272 271 270 269 269 269 269 269 268 267 268
271 271 270 270 270 269 269 269 269 269 270 270 271 272 273 274 275 276 278 279 280 280 280 280 280 280 280 280 280 280 280 279 279 279 278 279 280 281 282 284 285 284 283 282 280 279 278 278 278 278 280 281 281 281 282 283 282 280 279 279 278 277 276 276 275 274 274 273 273 272 272 273 273 272 271 269 268 268 268 268 269 269 268 268 268
269 269 268 268 268 268 268 268 268 268 269 269 270 271 272 273 274 276 277 278 279 280 280 280 280 280 280 280 280 280 280 279 278 278 278 278 279 280 281 283 284 284 283 281 280 279 278 278 278 279 280 281 281 281 281 282 282 281 279 279 278 277 277 276 275 274 274 273 273 272 273 273 272 270 269 268 268 268 268 268 269 269 268 267 266
267 267 267 267 266 266 266 267 267 267 267 268 269 270 271 272 273 275 276 277 278 279 280 280 280 280 280 280 280 280 280 279 278 278 278 278 278 279 279 281 283 284 282 281 280 279 278 279 279 279 280 281 281 281 281 281 282 281 279 278 278 277 277 276 275 274 273 273 273 273 272 271 270 269 268 268 268 268 268 268 268 268 267 266 265
265 265 265 265 265 265 265 265 266 266 267 267 268 269 270 271 272 273 274 276 277 278 279 279 280 280 280 280 280 280 280 280 279 279 279 279 278 279 279 280 282 284 283 280 279 279 278 279 279 279 279 280 280 280 279 279 279 279 278 278 277 277 275 274 273 273 273 273 273 272 270 269 269 268 268 268 268 269 268 268 267 267 266 265 265
263 263 264 264 264 264 264 265 265 265 266 267 267 268 269 270 271 272 273 274 275 277 278 279 280 280 280 280 280 281 281 281 281 280 280 279 279 279 279 280 281 283 282 280 279 278 278 278 279 278 279 279 278 277 277 276 275 275 275 275 275 274 273 272 273 273 274 273 272 270 269 269 268 267 268 268 269 268 268 267 267 266 265 265 265
262 262 263 263 263 263 263 264 264 264 265 265 266 266 266 267 268 269 270 272 273 274 276 277 279 280 281 281 281 281 281 281 281 281 280 280 280 280 280 280 281 282 282 280 279 278 278 278 278 278 278 278 277 276 275 274 273 272 271 271 272 272 271 272 273 274 273 271 270 269 269 268 268 268 268 268 268 268 267 267 266 265 264 265 265
261 262 262 262 262 262 263 263 263 263 264 264 264 265 265 266 266 267 268 270 271 273 274 276 278 279 281 282 282 282 281 281 281 281 281 280 280 280 280 281 281 282 282 281 279 278 278 278 278 278 277 277 276 275 274 273 272 271 270 270 269 269 271 272 273 272 271 270 269 269 268 268 268 268 268 268 268 267 267 266 265 265 264 264 264
261 261 261 261 261 262 262 262 263 263 263 264 264 265 265 266 266 267 268 270 271 273 274 276 277 279 280 281 282 282 282 282 281 281 281 281 281 281 281 281 282 282 282 280 279 278 278 278 277 277 276 276 276 275 274 273 272 271 270 269 268 269 271 272 271 270 269 269 269 268 268 268 268 268 267 267 267 266 266 265 265 264 264 264 264
261 261 261 261 261 262 262 262 263 263 263 264 264 265 265 266 267 268 269 270 272 273 274 275 276 277 279 280 281 282 283 283 282 281 281 281 281 281 281 281 282 283 282 281 279 278 278 277 277 277 276 276 275 274 273 272 271 270 270 268 268 270 271 270 270 269 269 268 268 268 268 268 268 267 267 266 265 265 265 265 264 264 264 264 264
260 261 261 261 261 262 262 263 263 263 263 264 264 264 265 266 267 268 269 270 271 273 274 275 276 276 277 278 280 281 283 283 282 282 281 281 281 281 281 281 282 282 282 281 279 278 278 277 276 276 275 275 274 273 272 271 270 270 269 267 267 269 269 268 268 268 268 267 267 267 267 267 267 267 267 266 265 265 265 264 264 264 264 264 264
260 261 261 261 262 262 262 262 262 262 263 263 264 264 265 265 266 267 268 268 269 270 272 274 276 277 277 277 278 280 282 283 283 282 281 281 281 281 281 281 281 282 282 281 279 278 277 277 276 275 275 274 273 272 272 271 270 270 269 268 268 269 268 268 268 267 267 267 267 267 267 267 267 266 266 266 265 265 265 264 264 264 264 264 265
260 260 260 260 261 261 261 261 262 262 263 264 264 265 266 267 267 268 268 269 270 270 271 273 274 276 277 277 277 278 280 281 282 282 282 281 281 281 281 281 281 282 282 280 278 277 277 276 275 274 274 273 272 271 271 270 270 269 268 269 270 270 269 268 268 268 267 267 267 267 267 267 266 266 266 265 265 265 265 264 264 264 264 265 265
259 259 259 260 260 261 261 262 262 262 263 264 264 265 266 267 268 268 269 270 270 271 272 273 274 275 277 277 277 278 279 280 282 282 282 281 281 281 281 281 281 282 281 279 277 276 276 275 274 274 273 272 271 270 269 269 269 268 268 269 270 269 268 268 268 267 267 267 267 267 267 267 266 266 265 265 266 265 265 265 264 264 264 265 266
258 259 259 259 260 261 261 261 262 262 262 263 264 264 265 266 267 268 269 270 271 272 272 273 274 275 276 277 277 278 279 280 281 282 281 281 281 281 281 281 281 281 280 278 276 276 275 274 273 272 272 271 270 269 268 269 269 269 269 269 268 268 268 267 267 267 267 267 267 267 267 267 266 266 266 266 266 265 265 265 264 264 265 265 266
259 259 259 259 260 261 261 261 262 262 263 264 264 265 265 266 267 268 269 270 271 272 272 273 275 276 276 276 277 277 278 279 281 281 281 280 280 280 281 281 281 280 278 276 275 275 274 272 272 271 271 270 269 268 269 269 270 269 269 269 268 268 267 268 268 267 267 267 267 267 267 267 266 266 266 266 266 265 265 264 264 264 265 265 265
259 259 259 260 260 260 261 261 261 262 262 263 264 264 265 265 266 268 269 271 272 273 273 274 275 276 276 276 277 277 278 279 280 280 280 280 280 280 280 280 280 279 276 274 274 273 272 271 271 271 270 268 268 269 269 269 269 269 269 268 268 268 267 267 267 267 267 267 267 267 267 266 266 266 267 266 266 265 264 264 264 264 265 265 265
259 260 260 260 260 260 260 260 261 261 262 262 263 263 264 264 265 266 268 269 271 273 274 275 275 275 276 276 277 278 278 279 279 280 280 280 279 279 280 280 279 277 275 273 272 271 271 271 272 271 270 269 269 269 269 269 269 269 268 268 268 267 267 267 267 267 267 266 267 267 266 266 266 267 267 267 266 265 265 264 264 264 264 264 265
260 260 260 260 260 260 260 261 261 261 261 262 262 263 264 264 265 266 267 269 271 273 274 275 275 275 275 276 277 277 278 279 279 279 279 279 279 278 278 277 276 274 273 272 271 272 273 273 272 271 271 271 271 271 270 270 269 269 268 268 267 267 267 267 266 266 266 266 266 266 266 266 266 267 267 267 266 265 265 265 264 264 264 265 265
261 261 261 261 261 261 261 261 261 262 262 262 263 263 264 265 266 267 268 269 271 273 274 275 275 275 275 275 276 277 278 279 278 278 277 277 276 275 274 274 273 272 271 272 272 273 274 273 271 270 270 270 270 270 270 270 269 269 268 268 267 267 267 267 266 266 266 266 266 266 266 266 266 267 267 267 266 265 265 265 264 264 265 265 265
262 262 262 263 262 262 262 262 262 262 263 263 263 264 265 265 266 268 269 270 272 273 274 274 274 275 275 275 276 276 276 276 275 275 274 273 272 272 272 272 271 271 271 272 272 273 273 272 271 270 269 269 269 269 269 269 269 269 268 268 268 267 267 266 266 266 266 266 266 266 266 266 266 267 267 267 266 265 264 264 264 264 265 265 265
262 262 263 263 264 264 264 263 263 263 263 264 264 265 265 266 267 269 270 271 272 273 274 274 274 274 274 274 274 274 272 271 271 271 272 271 271 270 270 270 270 270 270 271 271 272 272 272 271 270 269 269 268 268 268 268 267 267 267 267 267 267 266 266 266 266 266 266 266 266 266 266 267 267 267 267 266 265 264 264 265 265 265 265 265
262 262 263 264 264 265 265 265 265 264 264 265 265 266 267 268 269 271 272 272 273 273 273 273 273 272 272 271 271 270 269 268 268 269 270 270 270 270 269 269 269 269 269 269 270 271 272 271 270 270 269 268 268 267 267 267 267 266 266 266 266 265 265 265 265 265 265 265 265 266 266 266 267 267 267 266 266 265 265 265 265 265 265 265 265
261 262 262 263 264 264 265 266 266 266 266 266 267 267 268 269 270 271 271 271 271 271 271 270 269 269 268 268 267 267 267 267 267 268 269 269 269 270 270 270 270 270 269 269 269 270 270 269 269 269 268 268 267 267 267 267 266 266 266 265 265 265 265 265 265 265 265 265 265 265 266 266 267 267 266 266 266 266 265 265 265 265 265 265 265
261 261 262 262 263 263 264 264 265 266 266 266 267 267 267 268 268 268 268 268 268 267 267 267 266 266 265 265 265 265 265 265 266 266 267 268 268 269 269 270 270 270 269 268 268 268 268 268 268 268 268 267 267 267 267 266 266 266 265 265 265 265 265 264 264 264 265 265 265 265 266 266 266 266 266 266 266 266 265 265 265 266 265 265 265
260 260 261 261 262 262 262 263 263 264 264 265 265 266 266 266 265 265 265 265 265 265 264 264 264 264 263 263 263 263 263 262 263 264 266 267 267 267 267 267 268 268 268 267 267 267 267 267 267 267 267 266 266 266 266 266 265 265 265 265 265 264 264 264 264 264 264 264 265 265 266 266 266 266 266 266 266 266 266 266 266 266 265 265 265
259 259 260 260 261 261 261 262 262 262 263 263 263 264 264 264 263 263 263 263 263 263 263 263 263 263 262 262 262 262 261 261 261 262 263 264 265 266 267 267 267 267 266 266 266 266 266 266 266 266 266 266 266 265 265 265 265 265 265 264 264 264 264 264 264 264 264 264 265 265 265 265 265 265 265 265 266 266 266 266 266 265 265 265 265
Wind_Speed
35 31 27 23 22 21 21 23 25 28 29 29 31 32 33 34 34 35 35 36 37 38 39 39 40 41 42 44 45 46 46 46 45 44 45 45 45 45 45 45 46 46 45 45 45 45 45 44 43 42 41 39 38 38 37 36 34 33 31 30 28 26 24 21 12 5 9 16 18 19 20 19 17 16 15 15 14 13 12 11 8 6 6 7 7
34 33 31 28 26 24 23 22 23 25 26 28 29 31 32 34 35 35 35 36 37 38 39 39 39 40 42 43 45 46 46 47 47 46 47 47 46 44 44 45 47 46 45 45 46 46 45 45 44 43 42 40 40 39 39 38 37 36 34 32 31 29 27 25 20 11 9 15 19 20 19 18 17 16 15 16 15 14 12 10 6 5 5 7 8
32 31 31 30 28 27 25 23 22 22 23 25 28 30 32 33 34 35 36 36 36 37 38 38 39 40 41 42 43 44 45 45 46 47 48 47 46 45 44 45 47 47 47 47 47 47 46 45 45 44 42 41 41 40 40 40 39 38 37 35 33 32 30 28 26 19 14 15 19 20 19 19 19 16 15 16 16 14 12 8 5 5 5 7 8
31 30 29 29 30 30 29 27 24 23 23 24 26 28 30 32 33 35 36 36 36 36 37 37 38 39 40 41 42 42 43 44 44 46 47 47 47 46 45 45 46 47 48 49 48 48 48 48 47 46 44 43 42 42 41 41 41 40 38 36 34 33 32 31 29 25 18 15 17 19 18 18 18 17 16 16 15 14 11 8 6 6 6 7 8
30 30 30 30 31 32 31 30 28 26 24 24 25 26 28 30 31 33 34 35 35 35 35 36 37 39 40 41 42 42 43 44 45 46 47 46 46 46 46 45 46 46 47 47 49 50 51 51 50 48 47 45 44 44 43 42 41 40 38 37 35 34 32 32 31 27 22 18 16 16 16 17 17 17 16 15 15 14 12 9 8 8 9 8 9
30 30 30 31 32 33 33 33 32 30 28 26 25 25 25 26 28 29 31 33 35 35 35 35 37 39 41 41 42 43 43 44 45 47 47 46 46 45 45 45 46 46 47 47 48 50 53 53 52 51 50 50 49 47 46 44 42 41 40 38 36 34 32 31 30 28 25 22 18 15 16 17 18 17 15 14 13 12 10 10 10 10 10 11 12
31 30 29 30 31 33 33 33 33 33 32 30 27 25 24 24 25 26 28 30 33 33 34 36 37 39 40 41 42 42 42 43 45 46 46 46 46 45 45 45 45 45 46 47 47 49 52 54 53 53 54 54 53 51 49 47 45 43 42 40 38 35 33 31 30 28 26 24 20 18 17 16 17 17 14 12 11 11 10 9 9 9 10 13 15
29 28 27 28 29 30 31 31 32 33 33 33 32 30 27 25 24 24 25 27 29 32 34 36 37 38 39 40 40 41 41 43 45 45 45 45 45 45 45 45 44 44 44 45 45 47 50 53 54 55 56 56 55 54 52 50 48 45 43 42 39 37 35 33 31 30 28 25 23 20 16 14 15 16 13 11 11 12 12 10 8 8 8 12 15
26 26 25 25 26 27 28 29 30 32 32 34 34 34 32 30 27 25 24 25 27 29 32 34 36 36 37 38 38 39 41 43 44 44 44 44 44 45 45 44 44 44 43 43 45 46 48 51 53 55 56 55 55 54 53 52 50 48 46 44 41 39 37 35 33 32 28 24 21 18 14 13 14 15 14 15 14 12 10 10 9 7 8 10 14
26 25 24 24 26 26 27 28 29 31 32 33 34 35 35 34 32 29 26 25 26 27 29 32 33 34 35 36 37 38 41 43 43 44 45 45 45 44 43 44 43 43 43 43 44 47 48 49 51 52 53 54 54 53 52 51 50 49 48 47 45 42 38 36 35 34 30 26 23 18 14 13 16 17 16 16 15 12 10 10 8 7 7 8 12
24 24 24 24 26 27 27 29 30 31 32 33 34 35 35 35 34 32 29 27 26 26 28 30 31 33 34 35 36 38 41 42 42 43 45 47 46 44 43 43 43 43 43 43 45 46 48 48 48 47 48 51 51 51 50 50 49 48 46 45 45 44 41 39 38 37 35 31 27 22 17 15 15 17 16 15 14 14 12 9 7 7 6 7 10
22 23 22 23 25 26 27 29 30 31 32 33 34 34 34 34 34 33 32 30 28 27 27 28 30 31 33 34 36 38 40 41 41 42 44 46 47 46 43 42 42 43 43 44 45 46 47 48 46 45 46 48 48 48 47 47 47 46 44 42 43 44 42 40 38 38 37 35 31 27 23 17 15 16 17 16 15 14 11 9 8 9 9 10 12
21 22 21 21 23 25 26 28 29 30 31 31 32 33 33 34 34 33 32 31 29 28 27 27 29 30 31 33 36 37 39 40 40 41 42 44 46 47 44 42 42 43 44 44 45 45 45 46 45 44 44 44 45 45 45 43 43 43 42 40 41 42 41 39 36 35 35 36 35 32 27 21 17 17 18 17 15 13 11 10 11 11 11 12 13
21 21 20 21 22 24 25 26 27 29 30 30 31 31 31 31 33 33 32 31 30 29 28 27 28 30 31 33 35 36 38 38 38 39 41 42 45 46 45 43 42 43 44 44 45 45 45 45 45 45 43 43 44 45 44 42 40 39 39 39 40 40 39 38 35 32 31 32 33 31 27 23 19 16 17 17 15 12 11 11 12 12 12 13 15
21 20 19 19 21 23 25 26 27 28 29 29 30 30 29 29 31 32 32 31 30 29 28 28 29 30 31 32 34 35 36 35 35 37 39 40 42 43 43 43 42 42 42 42 43 43 44 44 45 45 44 44 46 46 46 44 41 38 38 38 39 39 39 38 37 34 31 30 30 28 25 22 18 16 17 16 14 11 11 11 12 12 13 15 19
22 21 20 20 21 22 24 25 26 27 28 28 28 29 29 29 30 30 29 30 31 30 29 29 28 30 31 31 32 35 35 33 33 35 36 37 38 39 40 41 41 41 40 40 40 41 41 43 44 44 44 45 45 45 46 45 42 40 39 37 36 37 38 38 36 34 31 28 27 26 23 20 17 17 16 14 12 12 12 13 14 13 13 14 18
23 22 21 21 22 24 24 25 26 27 27 26 27 28 28 29 30 29 28 29 29 29 29 30 29 29 30 31 31 33 34 32 32 33 34 34 35 36 37 38 39 40 39 38 39 40 41 42 43 43 44 45 44 44 45 44 42 40 39 36 34 34 35 34 31 28 26 25 24 24 22 19 17 17 16 13 12 13 15 15 14 13 12 9 10
23 23 23 24 25 26 26 26 27 28 27 27 27 28 28 29 29 29 28 29 29 29 29 29 29 29 30 31 32 33 34 33 32 32 33 33 34 36 36 35 36 38 37 36 37 38 39 40 42 44 45 45 45 43 43 43 42 40 39 36 33 33 33 32 29 26 23 23 23 21 19 17 17 18 18 15 14 14 15 15 13 12 12 10 8
24 24 25 26 26 27 28 28 29 29 29 28 29 30 30 30 30 29 28 28 29 30 29 28 30 30 30 31 32 32 34 33 32 32 32 31 34 36 35 34 34 35 33 32 32 34 36 38 40 43 44 44 44 41 40 44 44 42 40 37 34 34 35 35 34 31 28 25 21 19 19 19 20 21 20 18 18 18 17 16 15 15 15 15 12
25 25 26 27 28 29 29 30 30 30 30 31 32 32 32 32 31 30 29 29 29 29 29 28 30 31 31 30 31 31 32 32 31 31 32 31 33 36 36 35 34 32 31 31 31 32 34 36 37 39 40 41 41 39 38 43 45 43 40 39 37 37 38 38 35 33 32 28 23 21 22 23 24 24 22 21 21 20 18 17 17 17 16 16 14
27 26 27 28 29 30 31 31 31 31 32 32 33 33 33 33 32 32 31 30 29 30 30 29 29 31 32 30 30 31 31 32 31 31 32 32 33 36 37 37 36 33 31 32 33 33 34 35 36 36 34 35 37 37 37 40 43 43 42 41 39 37 38 37 33 31 31 28 25 23 24 26 25 24 22 22 21 19 17 16 16 15 14 14 14
27 27 29 30 31 32 32 32 31 32 33 33 32 34 35 34 34 34 32 30 29 30 30 29 28 30 32 31 31 32 31 31 31 32 33 34 34 37 39 40 38 35 32 32 33 33 34 35 36 35 33 33 37 39 38 37 39 41 42 40 35 33 34 34 32 31 30 28 26 25 25 26 25 23 22 21 19 17 16 15 14 13 13 13 14
28 29 32 32 33 33 33 32 32 32 34 34 33 35 38 37 35 34 32 30 29 28 28 27 25 27 29 30 31 32 31 30 31 31 33 35 36 38 40 41 40 37 35 33 33 34 34 35 36 35 34 35 38 40 40 38 37 39 41 38 33 30 31 32 32 31 30 29 28 26 25 26 25 22 21 20 18 18 17 15 13 12 11 11 12
29 31 33 33 34 35 33 34 34 34 34 34 33 35 37 36 34 33 31 29 27 26 26 25 22 22 25 27 29 30 29 30 31 32 34 36 37 38 39 40 40 39 38 35 33 33 34 34 35 34 35 36 38 40 41 39 36 36 37 36 32 29 31 33 34 32 30 29 27 23 22 25 24 22 21 20 18 17 16 13 11 11 10 11 12
30 33 34 35 36 36 36 37 38 36 35 34 32 33 34 33 32 32 30 28 26 25 25 24 22 22 22 24 26 28 27 28 30 32 33 35 36 36 37 38 37 39 40 37 33 32 34 35 35 35 36 36 36 37 38 38 35 33 33 33 32 31 32 34 34 32 30 28 25 22 22 23 23 21 19 18 17 16 14 12 11 10 11 12 12
32 34 35 36 37 37 38 39 39 38 36 34 32 33 33 31 31 31 29 27 26 26 25 23 22 21 22 23 26 27 26 27 30 31 31 32 33 34 35 37 36 38 41 41 37 33 33 33 34 35 35 34 34 34 35 36 34 33 33 34 33 32 33 34 34 33 31 27 24 22 22 22 21 19 18 17 16 15 12 10 10 11 10 10 12
33 34 35 37 37 37 37 37 37 37 36 34 33 32 32 31 30 29 28 27 26 25 24 23 22 20 21 23 25 25 25 26 28 29 29 30 32 32 32 35 36 35 37 38 35 32 31 31 32 34 34 33 33 32 33 33 33 33 34 35 35 34 34 35 35 34 30 26 24 23 21 20 19 17 17 17 15 12 10 9 9 10 9 9 11
34 36 37 37 37 37 36 35 36 36 35 33 32 31 31 30 30 30 30 29 26 25 24 23 23 23 23 23 23 22 23 26 29 30 29 31 32 31 30 32 33 33 34 34 33 31 31 31 31 31 31 32 32 31 31 32 32 31 33 34 34 34 34 33 30 28 26 24 24 23 20 18 18 17 17 15 12 9 7 7 8 8 8 8 9
37 38 39 37 37 37 35 34 34 33 33 32 32 32 33 31 31 33 35 34 32 31 29 28 29 29 28 27 24 20 21 27 32 33 34 33 32 32 32 32 32 32 33 33 32 30 30 30 31 30 29 30 29 28 29 30 28 29 32 34 34 34 32 30 27 27 27 26 24 21 19 18 18 17 15 13 10 7 6 6 6 7 8 8 9
38 39 37 35 35 34 33 33 33 32 31 31 32 34 35 35 34 36 38 39 38 37 36 36 37 35 32 32 32 29 30 33 33 32 33 32 31 33 34 34 33 32 31 33 34 31 29 29 29 30 30 29 26 25 28 29 30 30 32 32 33 33 31 29 29 28 27 24 22 20 19 19 18 16 14 11 8 6 5 4 5 6 8 9 10
36 36 34 32 33 32 30 31 32 31 31 31 31 32 34 37 39 39 40 42 43 42 42 43 44 42 39 37 36 36 37 37 32 29 30 30 29 32 33 33 33 32 32 34 34 31 29 27 26 28 30 29 27 27 28 30 31 31 30 28 29 29 28 28 28 27 25 22 21 20 19 18 17 14 12 9 6 4 3 4 5 7 9 11 11
34 34 34 33 34 33 31 31 30 29 28 29 29 28 29 31 34 35 36 38 39 40 41 42 44 44 43 41 39 36 35 34 30 27 28 28 30 31 32 32 34 35 35 37 33 30 30 28 26 27 28 27 27 28 29 29 29 29 28 26 23 24 27 28 27 25 23 21 20 19 18 17 15 13 10 7 5 3 3 5 6 8 10 12 14
37 37 36 36 36 34 32 30 30 28 28 27 27 27 26 24 24 27 29 31 32 34 36 37 39 40 40 40 41 38 36 34 30 28 28 29 30 30 31 32 34 36 38 38 32 29 30 28 26 27 28 28 28 30 30 31 31 31 29 26 23 24 27 27 25 23 21 21 20 19 18 17 15 12 10 7 5 3 4 6 7 10 11 12 12
39 39 38 37 37 35 32 30 29 28 28 28 27 27 27 26 25 25 24 23 22 24 27 30 33 35 35 36 37 39 38 35 31 29 29 30 30 30 30 31 33 37 40 38 31 27 28 26 25 26 27 27 29 30 31 32 33 33 31 27 26 29 29 26 24 24 22 21 20 19 18 17 15 13 11 8 6 5 6 7 8 10 11 11 11
39 39 37 36 35 33 29 27 27 27 28 29 30 29 29 29 28 27 23 20 18 20 22 23 24 26 29 31 32 34 37 35 32 29 29 29 29 29 29 27 27 31 36 36 31 28 28 26 25 26 28 28 29 31 32 33 34 35 33 29 28 31 31 28 27 26 24 22 21 19 18 17 15 13 12 10 7 7 7 7 7 9 11 12 12
36 35 33 32 32 31 30 31 32 32 32 32 32 31 30 29 27 27 26 24 22 23 25 24 22 22 24 27 29 30 32 33 32 29 28 28 28 28 27 24 23 25 28 30 29 28 28 28 28 29 30 30 31 32 33 34 35 36 36 34 34 35 33 31 29 27 24 22 21 19 18 17 15 13 12 9 7 6 6 6 7 9 11 12 13
33 32 32 32 33 34 34 34 34 33 32 31 29 28 27 26 25 24 24 23 23 23 24 24 22 20 20 22 25 27 28 29 31 30 29 28 28 29 28 25 23 22 23 24 26 26 27 28 30 31 32 32 31 31 31 33 35 35 35 37 37 36 34 32 30 28 25 23 21 20 18 17 14 12 10 9 7 6 5 6 7 9 10 11 12
34 33 33 34 34 32 31 30 30 29 29 28 27 26 24 24 24 23 22 22 22 22 21 21 20 19 17 17 19 23 25 26 27 27 28 27 27 28 28 26 23 21 21 24 27 28 27 28 30 31 32 32 32 31 31 33 36 35 35 37 36 34 33 31 29 27 26 23 22 21 19 16 14 12 10 8 6 5 5 6 7 9 10 10 10
34 33 33 33 32 30 28 28 28 27 26 26 25 25 25 24 24 23 21 20 20 20 19 19 19 18 17 18 19 20 21 20 19 20 22 24 25 25 25 25 23 21 22 25 29 29 28 27 28 30 31 32 32 32 34 37 39 38 38 38 36 33 32 30 28 27 26 24 22 21 19 16 14 12 10 7 5 5 5 6 8 8 9 10 11
33 32 31 30 28 27 27 26 25 24 23 22 21 21 21 21 21 21 21 20 19 19 19 19 18 18 19 20 20 19 17 16 16 17 18 20 22 23 23 22 21 20 21 25 28 29 28 28 30 31 30 30 30 33 37 40 40 39 38 37 35 33 31 29 28 26 24 23 22 20 19 17 15 12 9 6 4 4 5 6 7 9 10 13 15
32 31 29 28 26 25 24 24 24 24 24 23 22 22 22 23 22 22 22 20 18 18 18 17 18 19 20 20 21 21 19 17 17 18 18 20 22 23 22 20 19 20 22 25 27 28 28 30 32 32 31 30 32 36 39 40 39 38 37 35 34 32 30 27 26 24 23 21 21 19 18 16 14 11 8 5 3 4 5 7 9 12 14 16 16
31 30 28 27 26 24 22 22 24 24 23 23 23 22 22 23 22 22 23 23 22 19 16 16 17 19 20 21 22 23 22 19 19 19 18 20 22 22 20 19 20 22 26 28 29 30 32 33 34 35 34 33 35 38 40 40 39 38 36 34 32 30 29 27 25 23 21 20 19 18 17 16 13 10 7 5 4 5 6 8 11 13 14 15 15
31 29 28 28 28 25 22 21 22 21 21 21 22 22 22 22 22 22 21 22 22 20 16 15 16 17 18 19 19 21 20 19 19 18 17 17 18 18 17 18 20 23 27 29 31 33 35 35 35 35 35 36 37 39 41 40 38 36 34 32 30 28 27 26 24 22 21 20 19 18 17 15 12 10 6 4 4 5 7 9 12 14 15 16 16
30 28 27 27 27 25 23 22 21 20 21 21 21 21 21 21 21 20 19 19 20 19 16 15 14 14 14 15 16 17 18 16 15 15 14 15 17 17 17 19 22 25 28 31 33 35 37 36 35 34 34 36 37 37 36 35 32 31 31 29 28 26 25 24 23 21 20 19 18 18 17 15 12 9 6 3 3 5 7 9 12 14 15 16 15
27 25 24 24 23 23 23 22 20 20 20 20 19 19 19 19 20 20 19 18 18 17 15 14 13 12 12 12 12 11 10 10 14 16 17 18 19 19 21 23 26 28 31 34 35 36 37 36 36 36 36 36 34 32 30 28 26 25 25 25 24 23 22 20 19 18 17 17 17 17 16 14 11 8 5 3 3 6 8 11 13 15 16 17 16
24 23 23 22 21 21 22 21 19 18 17 16 16 16 17 18 18 18 18 17 16 15 13 12 10 9 7 7 7 7 9 13 17 19 20 21 22 23 25 27 28 30 32 33 34 35 34 35 37 38 38 36 32 29 27 26 24 22 21 19 19 19 18 18 17 16 15 16 15 15 14 13 10 7 4 2 4 7 9 12 15 16 17 18 17
23 22 21 20 20 20 19 17 15 15 15 15 15 16 16 17 18 17 16 15 14 11 8 5 5 5 7 8 10 12 14 16 18 21 23 25 25 26 28 29 31 32 32 32 33 34 35 36 38 38 37 35 32 29 27 25 23 22 20 19 18 18 18 17 16 15 15 14 13 13 13 11 8 5 3 4 6 9 12 15 16 17 18 18 18
24 22 21 20 19 19 19 16 12 10 11 12 13 13 13 13 12 9 6 4 3 2 4 6 8 10 12 13 14 16 17 18 20 22 24 25 26 28 30 31 33 34 35 36 35 35 36 36 35 34 33 32 30 28 27 25 23 21 20 19 18 18 17 16 15 14 14 13 12 11 11 9 6 4 3 5 8 11 14 16 16 17 18 18 18
24 23 21 21 20 19 18 18 15 12 11 9 8 7 7 7 8 9 9 9 10 10 11 12 13 15 16 17 18 20 21 22 24 25 26 27 29 30 32 34 36 39 40 39 37 35 34 33 32 31 30 28 27 25 24 22 21 20 19 18 17 16 15 14 14 13 13 12 11 10 9 7 4 3 4 7 10 12 15 16 17 18 19 18 18
24 23 21 21 21 20 20 19 19 19 19 17 15 14 14 14 14 15 16 16 16 16 15 16 17 18 19 20 22 24 26 27 29 31 33 34 35 37 38 40 41 41 41 39 37 35 33 32 30 29 27 26 24 23 21 20 19 18 17 16 15 15 14 13 13 12 11 11 10 9 8 5 3 4 7 10 12 14 15 16 17 18 18 18 19
24 24 23 22 22 22 22 22 21 21 21 20 18 16 16 16 16 16 17 18 17 17 17 17 18 19 19 21 24 28 29 30 32 34 36 37 39 41 43 43 42 41 39 38 36 34 32 30 29 27 25 24 22 20 19 18 17 16 15 14 14 13 12 12 12 11 10 10 10 9 6 4 5 8 10 13 14 14 14 15 17 18 18 18 20
Wind_Direction
17 14 8 357 340 325 312 298 284 274 267 262 258 255 253 251 250 250 247 244 242 239 237 234 232 230 229 227 226 225 225 224 223 223 223 224 223 223 222 221 220 220 219 219 218 219 220 220 221 220 219 217 215 215 215 215 214 214 215 214 211 211 209 205 203 167 168 189 194 193 198 203 212 223 237 250 254 252 254 255 260 281 308 321 329
15 15 15 11 1 349 335 320 303 288 276 270 266 263 260 258 255 253 251 248 246 242 239 236 233 231 229 228 227 225 224 223 222 222 222 223 222 222 221 220 220 218 217 218 217 217 218 218 219 219 218 217 215 214 214 213 213 213 213 212 210 211 209 206 206 195 172 183 193 199 204 211 225 233 237 242 244 243 245 244 252 279 299 311 321
12 14 16 17 15 8 358 344 328 310 294 284 277 272 269 265 261 257 254 252 249 245 242 238 235 232 230 229 227 226 225 223 222 222 221 221 221 221 221 220 220 217 216 217 217 216 215 216 217 217 215 214 213 214 214 213 212 212 212 211 210 210 210 208 207 205 192 187 199 209 213 221 230 231 231 239 244 245 245 244 257 276 290 304 313
9 11 13 15 17 16 11 4 351 334 319 305 295 287 280 273 267 262 258 254 251 248 245 240 236 233 231 229 227 226 224 223 222 222 222 221 220 220 220 220 220 218 217 217 216 215 215 214 215 215 213 212 212 212 212 212 212 211 211 210 209 209 209 208 209 210 206 198 204 215 221 225 229 231 235 242 245 246 249 256 269 282 292 300 309
7 8 10 11 13 13 12 10 4 353 339 324 312 302 291 282 273 267 261 257 253 250 246 242 237 234 232 231 229 227 226 224 223 223 223 222 221 221 220 220 220 220 219 218 216 216 215 215 214 213 212 210 210 210 211 210 210 209 209 209 209 209 208 208 209 212 213 211 210 217 226 231 233 236 240 245 247 248 252 260 269 283 291 295 306
4 6 8 9 9 9 9 8 5 1 354 343 330 317 305 293 283 274 266 261 257 252 248 243 239 236 234 233 231 229 227 225 224 224 223 222 221 221 221 221 221 221 220 219 217 216 216 216 214 213 212 211 210 210 210 209 208 207 207 208 208 207 206 206 208 210 215 220 219 218 226 235 241 244 242 241 245 252 263 271 276 283 293 299 305
2 3 5 6 7 6 6 5 3 2 0 356 349 338 325 310 297 286 276 267 260 254 249 246 242 240 237 235 233 232 229 227 226 225 224 222 221 220 220 220 221 221 221 221 219 218 217 216 214 213 214 213 212 211 209 208 207 207 207 207 205 204 203 204 206 207 211 217 220 221 224 231 240 245 242 235 238 248 260 275 286 292 298 303 305
359 359 360 2 3 2 2 2 2 1 1 360 358 353 345 333 318 305 291 277 267 260 254 250 247 244 240 238 236 234 231 229 228 226 224 222 220 220 219 219 219 220 221 222 221 220 219 217 215 215 216 216 215 214 212 209 206 205 206 206 203 201 200 200 201 203 206 211 216 218 219 220 227 233 231 222 224 236 239 242 261 281 289 296 298
355 356 356 356 356 356 357 358 359 0 0 0 359 357 354 348 338 326 310 294 281 271 262 255 250 247 243 240 238 235 232 231 230 227 225 222 221 220 220 219 219 219 220 221 221 221 220 219 217 217 218 217 216 215 215 214 211 207 205 204 202 200 199 198 197 198 200 204 210 211 209 212 213 211 211 210 212 221 222 219 233 257 276 287 287
350 351 350 350 350 351 352 354 355 358 359 359 358 356 355 352 347 340 328 313 298 285 273 263 255 250 246 242 239 236 234 234 232 230 227 224 222 221 220 220 219 218 218 219 220 221 221 220 219 218 217 216 214 213 214 214 214 213 211 209 205 201 196 194 196 197 196 199 203 200 199 211 209 201 203 207 208 211 207 205 220 245 266 274 275
344 344 344 345 346 347 349 350 352 354 355 356 356 354 353 352 350 345 338 328 315 300 284 271 261 255 250 246 243 239 238 237 235 233 231 228 224 221 220 220 219 219 219 219 219 219 219 220 220 218 217 215 213 212 212 212 212 212 213 214 212 208 201 197 196 196 196 199 201 199 201 211 208 200 199 202 203 204 202 204 216 228 235 242 258
336 336 338 340 342 344 345 346 348 349 351 352 352 352 351 350 349 345 341 335 326 312 296 281 270 262 255 250 247 244 243 241 238 235 233 230 227 224 222 221 220 219 220 220 220 219 218 218 218 218 217 215 212 210 210 210 209 209 210 212 212 213 212 210 206 203 201 200 200 204 208 208 201 197 197 196 194 196 200 208 215 219 226 233 245
329 330 332 334 336 339 341 342 343 343 344 345 346 348 348 347 345 343 339 336 330 320 306 292 280 269 260 254 251 249 247 244 241 238 235 232 229 226 224 223 221 221 221 221 220 219 218 216 216 216 216 215 212 210 207 205 206 207 208 209 209 211 214 216 216 216 214 208 204 206 210 208 200 197 197 193 188 189 199 211 217 220 224 231 242
323 324 326 328 331 334 336 337 338 338 339 339 340 342 343 342 342 340 337 334 329 322 313 302 289 277 267 260 256 253 251 248 244 240 237 234 230 227 225 224 224 224 223 222 221 220 219 216 214 214 213 212 210 208 205 202 201 201 202 204 206 209 211 213 215 217 219 216 211 210 212 211 205 198 197 194 190 193 203 213 219 219 224 238 253
315 317 318 321 326 330 331 332 331 332 333 334 334 335 335 335 336 337 335 331 327 321 315 306 295 285 275 266 260 257 254 251 248 243 239 235 231 228 226 226 226 226 225 224 223 221 220 217 215 213 212 211 210 207 204 201 198 196 197 200 203 205 208 211 211 211 212 214 214 215 215 211 206 203 201 198 198 207 213 218 222 224 237 256 266
310 312 313 317 322 325 327 326 325 325 326 326 326 327 327 327 328 330 330 328 325 320 315 308 299 290 282 273 265 261 259 255 250 246 241 236 230 227 226 226 226 227 227 225 224 223 221 218 216 214 213 212 210 207 205 201 197 194 194 196 198 202 205 208 209 208 209 210 213 216 215 210 209 210 206 201 205 215 217 220 229 240 254 269 275
307 311 312 315 319 321 323 322 320 319 319 318 317 318 319 319 320 322 322 321 320 317 313 308 301 293 286 279 271 267 264 260 254 249 244 236 229 226 226 226 226 227 228 226 224 223 221 219 217 214 214 213 210 207 204 201 197 194 193 192 192 196 200 202 202 203 205 206 210 215 216 213 210 211 209 206 209 217 219 223 237 249 254 262 274
306 309 311 313 316 318 320 320 317 315 313 311 311 312 312 311 312 314 314 313 313 313 310 305 300 294 287 281 276 272 269 266 258 252 247 237 229 227 226 225 226 227 227 226 224 222 221 220 218 215 215 213 210 206 202 199 197 194 191 189 189 193 195 193 191 191 195 200 205 210 212 209 209 211 211 207 206 214 224 233 244 252 251 251 254
304 306 307 308 310 313 316 317 315 312 309 308 309 309 308 306 306 307 307 306 305 306 306 302 298 294 288 282 278 273 270 268 262 255 248 236 229 228 228 226 226 226 224 223 222 221 220 219 218 217 216 214 209 202 198 199 199 196 192 188 188 192 193 191 189 189 190 194 197 200 200 202 209 213 210 205 208 219 232 243 252 257 256 255 249
302 303 302 302 304 307 310 313 312 309 307 307 308 307 305 304 304 304 303 301 299 299 299 296 294 293 289 283 278 273 269 267 263 257 248 236 227 227 227 226 225 224 221 219 219 218 218 217 216 215 214 212 207 200 196 200 202 199 194 192 192 193 193 192 191 190 190 190 190 192 196 202 210 212 210 213 220 228 238 248 256 258 253 251 247
300 299 297 298 300 303 306 307 306 304 303 304 306 305 303 302 301 301 299 298 296 294 293 291 289 289 288 284 278 273 269 265 262 258 251 240 229 226 227 226 225 222 218 218 218 216 215 214 213 211 208 206 203 199 198 201 203 201 199 198 199 197 193 191 190 189 189 188 187 192 198 204 210 212 215 222 227 232 242 250 254 254 247 246 244
297 296 296 298 299 301 302 302 301 299 300 302 304 302 301 300 300 298 296 294 291 289 288 286 283 284 285 282 277 274 270 265 260 256 252 244 233 228 228 227 225 220 217 216 217 216 213 212 211 208 203 200 201 201 200 201 202 203 203 201 200 197 192 188 184 184 185 185 187 194 200 204 209 215 223 230 233 239 249 249 245 246 247 246 243
295 295 296 298 298 299 299 298 297 296 297 299 300 298 297 297 297 295 292 290 287 284 282 280 276 275 277 277 276 273 269 264 259 254 250 245 238 232 231 229 224 219 216 216 217 215 213 212 211 206 200 199 200 201 201 200 200 202 203 201 197 193 190 185 180 180 182 185 189 194 198 204 211 219 225 232 239 245 247 243 242 248 249 246 244
296 296 296 297 297 297 297 296 295 294 294 295 295 294 293 294 293 291 288 285 282 279 278 276 270 267 268 271 271 270 267 263 258 252 247 244 240 236 235 232 225 220 219 219 218 216 212 210 209 204 199 199 201 201 201 201 198 198 198 195 189 185 183 181 179 180 181 184 187 191 197 206 213 218 225 234 240 241 238 237 243 249 248 248 249
296 295 296 295 294 295 295 294 293 292 292 292 290 288 288 289 288 287 285 282 277 273 273 272 267 263 263 265 266 266 263 259 256 251 245 241 239 237 236 233 225 219 219 220 218 216 212 209 207 203 199 199 201 202 203 201 197 194 191 186 181 179 178 178 179 180 180 182 186 190 198 208 214 220 229 235 234 231 232 239 248 252 255 261 264
296 294 293 292 292 293 293 292 292 292 291 289 286 283 282 282 282 282 281 277 272 270 270 269 265 261 260 260 261 261 258 253 251 249 242 238 237 235 236 236 228 218 217 219 218 214 210 207 204 200 199 199 199 200 201 201 197 191 185 183 183 179 177 179 182 183 183 185 188 192 199 208 215 222 228 227 224 227 235 247 259 266 272 281 287
294 293 291 291 291 290 290 289 290 290 289 287 285 281 278 276 275 275 274 272 269 267 265 264 262 258 256 257 257 256 253 247 245 243 238 234 234 232 232 236 233 221 213 214 213 207 203 200 199 198 197 197 198 199 199 199 196 189 183 185 185 181 183 188 189 187 186 186 189 195 201 207 211 215 217 218 223 232 242 254 267 276 289 303 303
294 291 290 289 288 287 286 286 286 286 285 284 281 279 276 275 272 270 269 268 267 266 263 260 258 255 254 255 254 251 248 243 239 236 233 230 230 228 226 229 231 222 210 205 203 199 194 192 192 194 196 197 198 197 195 195 196 191 184 181 180 182 186 189 187 184 185 187 191 195 198 201 205 208 211 218 227 233 241 259 274 288 306 312 298
292 289 287 286 285 284 284 283 282 281 281 280 278 275 273 273 272 273 271 268 265 265 264 262 259 257 255 253 250 245 244 244 241 238 236 232 228 226 224 223 224 221 209 199 194 189 186 185 186 188 192 196 196 191 185 184 186 184 179 176 176 180 182 180 179 182 187 191 193 194 194 197 202 205 211 218 225 229 243 268 285 302 311 300 281
289 286 284 283 282 282 282 281 280 279 279 280 281 280 278 275 273 273 274 273 270 267 266 265 262 260 258 255 251 247 248 251 251 245 240 233 227 227 226 222 221 219 206 192 187 185 183 185 186 186 187 190 190 184 177 174 172 171 170 171 174 176 176 178 182 187 190 193 194 192 192 195 198 202 208 213 218 227 246 274 293 300 294 281 273
285 284 283 281 280 281 281 280 281 280 279 279 280 282 282 281 277 272 271 272 273 271 268 266 264 261 259 256 255 253 251 252 252 246 239 230 223 225 225 221 221 218 201 186 184 187 187 187 188 188 186 185 183 180 176 172 168 165 163 164 168 171 173 180 187 190 191 190 190 189 190 193 197 201 203 205 213 228 252 284 295 288 282 279 275
281 281 282 282 281 281 280 279 280 279 277 278 277 277 279 281 282 278 274 271 270 269 267 265 263 261 259 256 255 254 250 248 243 238 234 228 222 222 221 218 222 219 200 185 186 192 192 190 189 188 186 184 180 177 173 170 167 165 163 161 162 168 176 184 188 191 190 188 186 187 189 192 195 196 195 195 205 229 275 292 292 289 285 283 280
280 280 281 281 281 279 278 278 278 277 277 278 277 275 274 274 277 282 283 279 274 269 265 264 263 262 260 257 255 253 250 246 238 232 232 227 221 221 219 217 221 218 201 188 188 194 193 191 190 186 185 184 180 175 172 171 169 169 168 166 164 170 178 184 187 189 190 189 188 188 188 190 190 188 184 185 192 221 268 281 286 291 288 281 281
282 280 280 280 279 278 276 275 274 274 275 276 276 275 275 273 273 276 280 282 279 272 266 264 264 263 262 259 256 253 250 245 235 229 229 227 221 219 218 217 221 219 206 194 192 193 190 189 189 185 184 184 179 174 172 171 169 170 170 168 169 173 176 179 183 185 186 186 187 187 187 187 185 180 176 177 185 210 250 273 282 286 285 282 284
283 281 280 278 277 275 274 273 273 275 276 275 274 273 271 271 272 272 275 280 285 283 277 271 265 263 262 261 258 254 250 245 237 228 225 223 221 218 215 215 219 219 208 198 194 193 189 186 185 182 181 181 179 177 175 172 171 171 170 165 166 170 173 175 180 183 184 184 186 188 187 184 181 176 173 177 188 208 237 262 273 279 285 286 284
287 285 282 279 277 276 276 276 277 276 274 272 270 268 266 265 265 266 269 272 275 277 278 277 273 268 262 260 259 257 251 246 240 230 222 220 219 215 211 211 213 214 207 198 194 192 189 185 182 179 179 181 181 181 180 176 174 175 173 170 169 170 172 175 177 179 182 184 186 187 185 181 178 174 173 182 197 215 239 259 272 281 285 284 282
290 287 285 282 280 278 278 277 275 272 270 267 265 262 261 259 257 258 261 264 265 267 270 272 275 274 264 255 257 258 254 249 243 233 221 217 217 215 213 213 213 211 205 196 190 187 186 184 182 179 178 179 180 181 181 180 176 173 172 172 173 172 173 177 179 179 182 184 185 185 183 179 176 173 176 188 203 220 245 265 277 283 282 279 282
288 286 284 282 281 279 278 277 276 275 273 271 270 270 269 267 263 262 261 260 260 262 264 267 269 268 262 256 256 256 254 251 245 232 217 212 214 215 213 214 215 211 202 191 186 184 184 183 181 178 176 177 178 178 179 178 175 170 167 168 171 171 172 175 178 179 182 182 182 182 180 176 174 178 182 189 205 227 252 270 281 284 280 277 280
288 286 284 283 282 280 277 276 275 273 271 268 265 264 266 267 267 266 264 261 259 260 264 265 263 257 255 256 253 249 246 245 240 225 209 204 209 213 213 212 212 209 198 187 183 182 180 178 176 174 174 176 176 176 176 177 174 171 168 167 166 167 170 174 177 179 180 180 179 179 177 174 175 180 184 190 210 238 258 277 283 276 272 276 279
289 286 284 282 280 278 277 276 274 271 270 269 267 264 264 265 265 264 264 261 259 259 261 262 259 253 251 249 244 238 236 235 231 221 205 199 205 212 214 213 211 204 191 180 177 177 175 170 169 171 172 173 175 176 177 176 173 171 170 168 166 168 172 176 178 178 178 178 177 176 174 174 175 178 183 193 220 246 262 276 277 270 275 284 284
290 286 283 281 278 276 275 274 271 270 270 271 272 271 271 271 271 271 270 267 262 258 255 255 256 254 252 248 242 237 233 230 228 222 207 198 202 208 211 213 208 195 180 172 171 171 166 163 166 171 172 172 175 176 175 173 170 168 168 168 168 170 172 174 176 177 176 177 177 175 174 175 176 177 182 195 221 254 267 272 275 279 285 287 283
292 287 283 280 277 273 268 265 266 267 266 266 266 266 265 266 268 270 272 271 269 264 256 252 254 254 252 250 248 243 236 230 226 221 211 202 201 203 205 206 198 185 175 170 167 164 162 164 171 176 176 174 175 173 171 170 169 167 167 167 168 169 170 170 173 176 175 175 176 175 175 177 178 178 184 200 228 258 273 279 283 286 286 282 279
294 289 285 281 276 270 263 259 261 261 260 259 260 261 262 264 265 265 265 266 267 267 261 254 253 252 251 251 249 246 242 233 223 217 210 198 192 189 189 187 179 170 167 166 164 165 168 172 176 179 179 179 178 175 173 172 170 167 166 167 167 168 169 170 172 174 175 175 175 175 177 179 179 180 186 207 240 266 283 288 289 290 288 283 281
297 292 287 282 277 270 263 257 256 256 255 256 258 259 261 264 265 266 265 265 267 269 265 257 253 250 248 245 243 245 244 231 209 195 185 173 166 163 163 164 161 158 159 162 166 171 175 175 173 172 173 173 172 171 170 170 168 167 165 165 165 167 169 172 174 175 175 175 174 176 178 179 180 182 190 210 248 274 288 291 288 288 287 285 282
303 299 295 290 283 276 268 260 254 253 254 256 257 259 262 263 264 264 262 263 267 270 266 258 251 246 241 237 236 238 229 193 166 157 152 148 146 146 149 153 155 157 161 165 170 174 175 172 167 163 161 160 161 162 162 162 163 164 164 164 165 167 169 172 173 174 174 174 175 177 180 180 180 183 188 208 263 281 286 287 287 285 283 281 280
313 310 306 301 295 289 281 271 259 252 252 253 255 257 259 261 262 261 257 258 264 268 265 256 245 235 224 209 193 174 151 138 136 139 141 142 143 145 149 152 155 158 162 166 169 170 169 165 161 158 155 154 155 156 157 157 157 158 159 159 161 163 165 168 171 173 173 175 177 179 179 180 181 183 189 232 284 287 285 287 287 283 279 278 280
323 321 317 314 313 311 306 293 271 253 250 253 254 256 260 263 266 266 262 259 260 257 248 225 194 169 147 135 134 133 129 128 132 139 145 149 150 151 154 155 155 154 155 156 159 160 158 156 155 153 152 151 152 152 153 154 154 155 156 157 158 162 166 169 173 175 176 177 181 183 182 183 183 184 208 271 289 288 287 287 285 281 279 280 283
335 334 332 330 331 333 335 331 314 283 268 264 260 262 269 274 279 281 274 260 242 166 127 115 114 118 118 117 121 125 127 132 137 141 146 151 153 154 156 155 152 148 145 145 147 148 148 148 149 149 148 149 150 150 151 153 153 154 156 159 161 166 170 172 173 176 180 183 186 187 187 190 189 192 247 287 292 289 286 283 279 281 285 286 287
344 344 343 342 344 346 349 351 353 352 350 349 349 353 1 15 29 40 54 66 73 81 92 97 101 107 111 114 119 122 124 127 131 133 135 139 143 145 146 145 144 142 140 140 141 142 142 142 144 144 144 145 147 147 148 150 151 153 156 159 164 168 171 173 176 181 185 188 191 192 193 197 201 225 275 291 291 287 283 281 281 287 290 288 287
351 351 351 352 352 354 357 2 8 12 15 19 23 26 31 38 43 49 59 67 71 75 83 91 98 104 108 114 122 124 122 123 127 130 131 134 137 137 136 136 136 136 136 136 137 137 138 138 140 140 141 142 143 144 146 147 149 152 156 161 165 169 172 175 179 185 188 190 193 194 192 198 233 272 287 291 288 281 280 285 291 293 290 286 286
357 357 359 360 1 3 5 8 11 14 18 23 26 28 33 39 44 51 60 65 69 74 81 89 96 101 104 111 121 125 124 124 127 130 131 133 135 136 135 135 135 135 134 134 135 136 136 138 138 139 140 141 142 143 145 147 149 153 157 160 164 170 174 177 181 188 193 192 190 188 192 222 263 278 284 285 281 278 285 295 298 295 290 287 289